• In Uzbekistan
  • List of Countries
  • For 7 days
  • Water Temperature
  • Satellite Maps
  • Weather Map
  • Weather Widgets
  • user-avatar
    Login

    Hourly Weather Campo Grande

    Today, 21 April, Sunday

    Time Temperature Precipitation Wind Pressure Humidity
    00:00 +25°C° 0 mm 1 mps 710 mmHg 79%
    01:00 +24°C° 0 mm 1 mps 710 mmHg 80%
    02:00 +24°C° 0 mm 1 mps 709 mmHg 81%
    03:00 +24°C° 0 mm 1 mps 709 mmHg 82%
    04:00 +24°C° 0 mm 1 mps 709 mmHg 83%
    05:00 +23°C° 0 mm 1 mps 709 mmHg 84%
    06:00 +25°C° 0 mm 2 mps 710 mmHg 79%
    07:00 +26°C° 0 mm 2 mps 710 mmHg 75%
    08:00 +27°C° 0 mm 2 mps 711 mmHg 70%
    09:00 +29°C° 0 mm 2 mps 711 mmHg 65%
    10:00 +30°C° 0 mm 2 mps 711 mmHg 60%
    11:00 +32°C° 0 mm 2 mps 711 mmHg 55%
    12:00 +32°C° 0.6 mm 2 mps 710 mmHg 54%
    13:00 +32°C° 0.6 mm 2 mps 710 mmHg 54%
    14:00 +32°C° 0.6 mm 2 mps 709 mmHg 53%
    15:00 +31°C° 0.4 mm 1 mps 708 mmHg 57%
    16:00 +30°C° 0.4 mm 1 mps 708 mmHg 61%
    17:00 +29°C° 0.4 mm 1 mps 708 mmHg 65%
    18:00 +28°C° 0 mm 1 mps 708 mmHg 67%
    19:00 +27°C° 0 mm 1 mps 708 mmHg 68%
    20:00 +27°C° 0 mm 2 mps 709 mmHg 70%
    21:00 +26°C° 0 mm 2 mps 709 mmHg 71%
    22:00 +26°C° 0 mm 2 mps 709 mmHg 73%
    23:00 +26°C° 0 mm 2 mps 709 mmHg 74%

    Tomorrow, 22 April, Monday

    Time Temperature Precipitation Wind Pressure Humidity
    00:00 +25°C° 0 mm 3 mps 708 mmHg 75%
    01:00 +25°C° 0 mm 3 mps 708 mmHg 76%
    02:00 +25°C° 0 mm 3 mps 708 mmHg 76%
    03:00 +24°C° 0.1 mm 3 mps 708 mmHg 76%
    04:00 +24°C° 0.1 mm 3 mps 708 mmHg 75%
    05:00 +24°C° 0.1 mm 3 mps 707 mmHg 75%
    06:00 +25°C° 0.6 mm 3 mps 708 mmHg 76%
    07:00 +25°C° 0.6 mm 2 mps 709 mmHg 77%
    08:00 +25°C° 0.6 mm 2 mps 710 mmHg 78%
    09:00 +26°C° 0.8 mm 2 mps 710 mmHg 78%
    10:00 +26°C° 0.8 mm 1 mps 710 mmHg 78%
    11:00 +27°C° 0.8 mm 1 mps 711 mmHg 77%
    12:00 +28°C° 1.1 mm 1 mps 710 mmHg 73%
    13:00 +29°C° 1.1 mm 1 mps 709 mmHg 69%
    14:00 +28°C° 1.1 mm 0 mps 709 mmHg 65%
    15:00 +29°C° 1.1 mm 1 mps 708 mmHg 71%
    16:00 +27°C° 1.1 mm 1 mps 708 mmHg 77%
    17:00 +26°C° 1.1 mm 1 mps 708 mmHg 82%
    18:00 +26°C° 0 mm 1 mps 708 mmHg 83%
    19:00 +25°C° 0 mm 1 mps 708 mmHg 84%
    20:00 +25°C° 0 mm 1 mps 709 mmHg 85%
    21:00 +24°C° 0 mm 1 mps 709 mmHg 85%
    22:00 +24°C° 0 mm 1 mps 709 mmHg 84%
    23:00 +24°C° 0 mm 1 mps 710 mmHg 84%

    Day after tomorrow, 23 April, Tuesday

    Time Temperature Precipitation Wind Pressure Humidity
    00:00 +24°C° 0 mm 1 mps 709 mmHg 84%
    01:00 +24°C° 0 mm 1 mps 709 mmHg 84%
    02:00 +24°C° 0 mm 2 mps 709 mmHg 84%
    03:00 +23°C° 0 mm 2 mps 709 mmHg 84%
    04:00 +23°C° 0 mm 2 mps 709 mmHg 84%
    05:00 +23°C° 0 mm 2 mps 709 mmHg 84%
    06:00 +24°C° 0 mm 2 mps 710 mmHg 81%
    07:00 +25°C° 0 mm 3 mps 710 mmHg 78%
    08:00 +27°C° 0 mm 3 mps 711 mmHg 75%
    09:00 +28°C° 1.3 mm 3 mps 711 mmHg 72%
    10:00 +29°C° 1.3 mm 3 mps 711 mmHg 69%
    11:00 +30°C° 1.3 mm 3 mps 711 mmHg 66%
    12:00 +30°C° 0.8 mm 3 mps 710 mmHg 64%
    13:00 +31°C° 0.8 mm 2 mps 710 mmHg 61%
    14:00 +31°C° 0.8 mm 2 mps 709 mmHg 59%
    15:00 +30°C° 0.4 mm 2 mps 709 mmHg 63%
    16:00 +29°C° 0.4 mm 2 mps 709 mmHg 67%
    17:00 +28°C° 0.4 mm 2 mps 709 mmHg 71%
    18:00 +27°C° 0 mm 1 mps 709 mmHg 72%
    19:00 +26°C° 0 mm 1 mps 709 mmHg 74%
    20:00 +26°C° 0 mm 1 mps 710 mmHg 76%
    21:00 +26°C° 0 mm 1 mps 710 mmHg 76%
    22:00 +25°C° 0 mm 1 mps 710 mmHg 76%
    23:00 +25°C° 0 mm 1 mps 711 mmHg 76%

    24 April, Wednesday

    Time Temperature Precipitation Wind Pressure Humidity
    00:00 +25°C° 0.3 mm 2 mps 710 mmHg 78%
    01:00 +25°C° 0.3 mm 2 mps 710 mmHg 81%
    02:00 +24°C° 0.3 mm 2 mps 710 mmHg 83%
    03:00 +24°C° 0.4 mm 2 mps 710 mmHg 85%
    04:00 +24°C° 0.4 mm 2 mps 710 mmHg 87%
    05:00 +23°C° 0.4 mm 2 mps 710 mmHg 89%
    06:00 +24°C° 0 mm 3 mps 711 mmHg 86%
    07:00 +25°C° 0 mm 3 mps 712 mmHg 83%
    08:00 +26°C° 0 mm 4 mps 712 mmHg 80%
    09:00 +28°C° 0.2 mm 4 mps 712 mmHg 75%
    10:00 +29°C° 0.2 mm 4 mps 712 mmHg 70%
    11:00 +30°C° 0.2 mm 4 mps 712 mmHg 66%
    12:00 +31°C° 0.9 mm 3 mps 711 mmHg 64%
    13:00 +31°C° 0.9 mm 3 mps 711 mmHg 63%
    14:00 +31°C° 0.9 mm 2 mps 710 mmHg 61%
    15:00 +30°C° 0.3 mm 2 mps 710 mmHg 65%
    16:00 +29°C° 0.3 mm 2 mps 710 mmHg 68%
    17:00 +28°C° 0.3 mm 1 mps 710 mmHg 71%
    18:00 +28°C° 0 mm 1 mps 710 mmHg 72%
    19:00 +27°C° 0 mm 1 mps 710 mmHg 73%
    20:00 +26°C° 0 mm 1 mps 711 mmHg 75%
    21:00 +26°C° 0 mm 1 mps 711 mmHg 75%
    22:00 +25°C° 0 mm 2 mps 711 mmHg 75%
    23:00 +25°C° 0 mm 2 mps 711 mmHg 75%

    25 April, Thursday

    Time Temperature Precipitation Wind Pressure Humidity
    00:00 +25°C° 0 mm 2 mps 711 mmHg 77%
    01:00 +25°C° 0 mm 2 mps 711 mmHg 78%
    02:00 +24°C° 0 mm 3 mps 711 mmHg 79%
    03:00 +24°C° 0 mm 3 mps 711 mmHg 81%
    04:00 +24°C° 0 mm 3 mps 711 mmHg 83%
    05:00 +24°C° 0 mm 3 mps 711 mmHg 84%
    06:00 +25°C° 0 mm 3 mps 712 mmHg 81%
    07:00 +26°C° 0 mm 3 mps 712 mmHg 78%
    08:00 +27°C° 0 mm 3 mps 713 mmHg 75%
    09:00 +29°C° 0 mm 3 mps 713 mmHg 69%
    10:00 +30°C° 0 mm 3 mps 713 mmHg 64%
    11:00 +31°C° 0 mm 3 mps 713 mmHg 59%
    12:00 +33°C° 0.2 mm 3 mps 712 mmHg 57%
    13:00 +32°C° 0.2 mm 2 mps 712 mmHg 56%
    14:00 +32°C° 0.2 mm 2 mps 711 mmHg 54%
    15:00 +31°C° 0.6 mm 2 mps 711 mmHg 59%
    16:00 +30°C° 0.6 mm 2 mps 711 mmHg 65%
    17:00 +29°C° 0.6 mm 2 mps 711 mmHg 70%
    18:00 +28°C° 0 mm 1 mps 711 mmHg 71%
    19:00 +27°C° 0 mm 1 mps 711 mmHg 73%
    20:00 +26°C° 0 mm 1 mps 711 mmHg 74%
    21:00 +26°C° 0 mm 1 mps 711 mmHg 75%
    22:00 +26°C° 0 mm 1 mps 711 mmHg 75%
    23:00 +26°C° 0 mm 2 mps 712 mmHg 75%

    26 April, Friday

    Time Temperature Precipitation Wind Pressure Humidity
    00:00 +25°C° 0 mm 2 mps 711 mmHg 77%
    01:00 +25°C° 0 mm 2 mps 711 mmHg 79%
    02:00 +25°C° 0 mm 3 mps 711 mmHg 81%
    03:00 +25°C° 0 mm 3 mps 711 mmHg 82%
    04:00 +24°C° 0 mm 3 mps 711 mmHg 82%
    05:00 +24°C° 0 mm 3 mps 711 mmHg 83%
    06:00 +25°C° 0 mm 3 mps 711 mmHg 81%
    07:00 +26°C° 0 mm 3 mps 712 mmHg 78%
    08:00 +27°C° 0 mm 4 mps 712 mmHg 76%
    09:00 +28°C° 0 mm 3 mps 712 mmHg 70%
    10:00 +30°C° 0 mm 3 mps 712 mmHg 64%
    11:00 +31°C° 0 mm 3 mps 712 mmHg 58%
    12:00 +31°C° 0.3 mm 3 mps 711 mmHg 57%
    13:00 +33°C° 0.3 mm 3 mps 711 mmHg 57%
    14:00 +32°C° 0.3 mm 2 mps 710 mmHg 56%
    15:00 +31°C° 1 mm 2 mps 710 mmHg 62%
    16:00 +29°C° 1 mm 2 mps 710 mmHg 67%
    17:00 +28°C° 1 mm 1 mps 709 mmHg 73%
    18:00 +27°C° 0.4 mm 1 mps 710 mmHg 75%
    19:00 +27°C° 0.4 mm 1 mps 710 mmHg 76%
    20:00 +24°C° 0.4 mm 0 mps 710 mmHg 78%
    21:00 +24°C° 0.1 mm 0 mps 710 mmHg 79%
    22:00 +23°C° 0.1 mm 0 mps 710 mmHg 80%
    23:00 +25°C° 0.1 mm 1 mps 710 mmHg 81%
    Show more